| time (UTC) | temp C | wind direction | speed KPH | gust KPH | rain 1hr cm | rain 24hr cm | rain mn cm | humidity % | barometer mb |
| 20260510043302 | 19 | 225 | 0.0 | 0.0 | 0.00 | 0.00 | 1.83 | 95 | 1014.9 |
| 20260510041802 | 19 | 68 | 0.0 | 0.0 | 0.00 | 0.00 | 1.83 | 95 | 1014.9 |
| 20260510040306 | 19 | 225 | 0.0 | 0.0 | 0.00 | 0.00 | 1.83 | 95 | 1015.2 |
| 20260510033802 | 19 | 225 | 0.0 | 0.0 | 0.00 | 0.00 | 1.83 | 95 | 1015.2 |
| 20260510032305 | 19 | 203 | 0.0 | 0.0 | 0.00 | 0.00 | 1.83 | 95 | 1015.2 |
| 20260510030802 | 19 | 293 | 0.0 | 0.0 | 0.00 | 0.00 | 1.83 | 95 | 1015.2 |
| 20260510025305 | 19 | 180 | 0.0 | 0.0 | 0.00 | 0.00 | 1.83 | 95 | 1014.9 |
| 20260510023802 | 19 | 225 | 0.0 | 0.0 | 0.00 | 0.00 | 1.83 | 95 | 1014.2 |
| 20260510022306 | 19 | 225 | 0.0 | 0.0 | 0.00 | 0.00 | 1.83 | 95 | 1014.2 |
| 20260510014802 | 19 | 45 | 0.0 | 0.0 | 0.00 | 0.00 | 1.83 | 94 | 1014.2 |
| 20260510013302 | 20 | 270 | 0.0 | 0.0 | 0.00 | 0.00 | 1.83 | 94 | 1013.5 |
| 20260510011802 | 20 | 203 | 0.0 | 0.0 | 0.00 | 0.00 | 1.83 | 93 | 1013.5 |
| 20260510004803 | 20 | 225 | 0.0 | 0.0 | 0.00 | 0.00 | 1.83 | 92 | 1013.5 |
| 20260510003302 | 21 | 203 | 0.0 | 0.0 | 0.00 | 0.00 | 1.83 | 91 | 1013.2 |
| 20260510001802 | 21 | 225 | 0.0 | 0.0 | 0.00 | 0.00 | 1.83 | 90 | 1013.2 |
| 20260509234803 | 21 | 203 | 0.0 | 0.0 | 0.00 | 0.00 | 1.83 | 90 | 1013.2 |
| 20260509233303 | 21 | 203 | 0.0 | 0.0 | 0.00 | 0.00 | 1.83 | 88 | 1013.2 |
| 20260509230802 | 21 | 225 | 0.0 | 0.0 | 0.00 | 0.00 | 1.83 | 89 | 1012.9 |
| 20260509225305 | 21 | 113 | 1.6 | 0.0 | 0.00 | 0.00 | 1.83 | 91 | 1013.2 |
| 20260509223803 | 21 | 180 | 0.0 | 0.0 | 0.00 | 0.00 | 1.83 | 90 | 1013.2 |
| 20260509222306 | 21 | 23 | 8.0 | 0.0 | 0.00 | 0.00 | 1.83 | 91 | 1012.9 |
| 20260509220802 | 21 | 203 | 3.2 | 0.0 | 0.00 | 0.00 | 1.83 | 91 | 1012.9 |
| 20260509215305 | 21 | 45 | 1.6 | 0.0 | 0.00 | 0.00 | 1.83 | 91 | 1012.9 |
| 20260509213805 | 21 | 180 | 0.0 | 0.0 | 0.00 | 0.00 | 1.83 | 92 | 1012.9 |
| 20260509212306 | 21 | 23 | 3.2 | 0.0 | 0.10 | 0.00 | 1.83 | 93 | 1013.2 |
| 20260509210816 | 21 | 203 | 1.6 | 0.0 | 0.10 | 0.00 | 1.83 | 92 | 1013.2 |
| 20260509203810 | 21 | 315 | 6.4 | 0.0 | 0.05 | 0.00 | 1.78 | 91 | 1013.2 |
| 20260509202804 | 21 | 180 | 3.2 | 0.0 | 0.00 | 0.00 | 1.73 | 89 | 1013.2 |
| 20260509201306 | 22 | 270 | 0.0 | 0.0 | 0.00 | 0.00 | 1.73 | 86 | 1013.2 |
| 20260509195808 | 22 | 225 | 0.0 | 0.0 | 0.00 | 0.00 | 1.73 | 83 | 1013.2 |
| 20260509194307 | 22 | 23 | 3.2 | 0.0 | 0.00 | 0.00 | 1.73 | 82 | 1013.2 |
| 20260509193303 | 23 | 225 | 0.0 | 0.0 | 0.00 | 0.00 | 1.73 | 84 | 1013.2 |
| 20260509190312 | 22 | 23 | 4.8 | 0.0 | 0.00 | 0.00 | 1.73 | 86 | 1013.2 |
| 20260509185307 | 22 | 113 | 3.2 | 0.0 | 0.00 | 0.00 | 1.73 | 86 | 1013.2 |
| 20260509184303 | 22 | 135 | 1.6 | 0.0 | 0.00 | 0.00 | 1.73 | 87 | 1013.5 |
| 20260509182807 | 22 | 113 | 3.2 | 0.0 | 0.00 | 0.00 | 1.73 | 89 | 1013.5 |
| 20260509181305 | 22 | 338 | 1.6 | 0.0 | 0.00 | 0.00 | 1.73 | 88 | 1013.5 |
| 20260509175806 | 22 | 45 | 6.4 | 0.0 | 0.00 | 0.00 | 1.73 | 88 | 1013.2 |
| 20260509174803 | 22 | 45 | 3.2 | 0.0 | 0.00 | 0.00 | 1.73 | 89 | 1013.5 |
| 20260509173302 | 22 | 113 | 1.6 | 0.0 | 0.13 | 0.00 | 1.73 | 90 | 1013.9 |
| 20260509171803 | 21 | 225 | 0.0 | 0.0 | 0.13 | 0.00 | 1.73 | 92 | 1013.9 |
| 20260509163302 | 22 | 180 | 3.2 | 0.0 | 0.00 | 0.00 | 1.60 | 85 | 1014.2 |
| 20260509161803 | 22 | 203 | 0.0 | 0.0 | 0.00 | 0.00 | 1.60 | 87 | 1014.2 |
| 20260509154803 | 21 | 68 | 1.6 | 0.0 | 0.00 | 0.00 | 1.60 | 90 | 1014.2 |
| 20260509153302 | 21 | 45 | 6.4 | 0.0 | 0.00 | 0.00 | 1.60 | 90 | 1013.9 |
| 20260509151802 | 20 | 158 | 3.2 | 0.0 | 0.00 | 0.00 | 1.60 | 90 | 1013.9 |
| 20260509150302 | 20 | 135 | 3.2 | 0.0 | 0.00 | 0.00 | 1.60 | 90 | 1013.5 |
| 20260509144803 | 20 | 23 | 4.8 | 0.0 | 0.00 | 0.00 | 1.60 | 91 | 1013.9 |
| 20260509143302 | 20 | 113 | 0.0 | 0.0 | 0.00 | 0.00 | 1.60 | 93 | 1013.5 |
| 20260509141802 | 19 | 23 | 1.6 | 0.0 | 0.00 | 0.00 | 1.60 | 94 | 1013.9 |
| 20260509140302 | 19 | 68 | 0.0 | 0.0 | 0.00 | 0.00 | 1.60 | 95 | 1013.9 |
| 20260509134802 | 19 | 225 | 0.0 | 0.0 | 0.00 | 0.00 | 1.60 | 95 | 1013.5 |
| 20260509133303 | 18 | 90 | 0.0 | 0.0 | 0.00 | 0.00 | 1.60 | 97 | 1013.5 |
| 20260509131802 | 18 | 225 | 0.0 | 0.0 | 0.00 | 0.00 | 1.60 | 97 | 1013.2 |
| 20260509130302 | 18 | 0 | 0.0 | 0.0 | 0.00 | 0.00 | 1.60 | 97 | 1013.2 |
| 20260509124802 | 18 | 248 | 0.0 | 0.0 | 0.00 | 0.00 | 1.60 | 97 | 1012.9 |
| 20260509120302 | 17 | 203 | 0.0 | 0.0 | 0.00 | 0.00 | 1.60 | 97 | 1013.2 |
| 20260509114802 | 17 | 203 | 0.0 | 0.0 | 0.03 | 0.00 | 1.60 | 97 | 1013.2 |
| 20260509113301 | 17 | 203 | 0.0 | 0.0 | 0.03 | 0.00 | 1.60 | 97 | 1012.9 |
| 20260509110802 | 17 | 203 | 0.0 | 0.0 | 0.03 | 0.00 | 1.60 | 97 | 1013.5 |
| 20260509104803 | 17 | 203 | 1.6 | 0.0 | 0.41 | 0.00 | 1.57 | 97 | 1012.5 |
| 20260509103302 | 17 | 248 | 0.0 | 0.0 | 1.37 | 0.00 | 1.57 | 97 | 1012.9 |
| 20260509101802 | 17 | 180 | 0.0 | 0.0 | 1.37 | 0.00 | 1.57 | 97 | 1012.9 |
| 20260509100302 | 18 | 270 | 6.4 | 0.0 | 1.30 | 0.00 | 1.45 | 97 | 1013.2 |
| 20260509093302 | 20 | 248 | 3.2 | 0.0 | 0.10 | 0.00 | 0.20 | 98 | 1012.5 |
| 20260509091802 | 20 | 203 | 3.2 | 0.0 | 0.10 | 0.00 | 0.20 | 98 | 1011.9 |
| 20260509090302 | 19 | 270 | 4.8 | 0.0 | 0.18 | 0.00 | 0.18 | 98 | 1011.5 |
| 20260509084802 | 18 | 135 | 0.0 | 0.0 | 0.10 | 0.00 | 0.10 | 98 | 1011.5 |
| 20260509083302 | 18 | 248 | 0.0 | 0.0 | 0.10 | 0.00 | 0.10 | 98 | 1011.2 |
| 20260509081302 | 18 | 180 | 0.0 | 0.0 | 0.00 | 0.00 | 0.00 | 97 | 1011.9 |
| 20260509075802 | 18 | 225 | 0.0 | 0.0 | 0.00 | 0.00 | 0.00 | 97 | 1011.5 |
| 20260509073802 | 18 | 203 | 0.0 | 0.0 | 0.00 | 0.00 | 0.00 | 97 | 1011.9 |
| 20260509072306 | 18 | 270 | 0.0 | 0.0 | 0.00 | 0.00 | 0.00 | 97 | 1012.2 |
| 20260509070802 | 18 | 203 | 0.0 | 0.0 | 0.00 | 0.00 | 0.00 | 97 | 1012.5 |
| 20260509065305 | 18 | 293 | 0.0 | 0.0 | 0.00 | 0.00 | 0.00 | 97 | 1013.2 |
| 20260509062815 | 18 | 203 | 0.0 | 0.0 | 0.00 | 0.00 | 0.00 | 97 | 1013.2 |
| 20260509061305 | 18 | 270 | 0.0 | 0.0 | 0.00 | 0.00 | 0.00 | 96 | 1013.2 |
| 20260509053304 | 19 | 270 | 0.0 | 0.0 | 0.00 | 0.00 | 0.00 | 96 | 1013.2 |
| 20260509050303 | 19 | 158 | 0.0 | 0.0 | 0.00 | 0.00 | 0.00 | 96 | 1012.5 |
| 20260509045314 | 19 | 203 | 0.0 | 0.0 | 0.00 | 0.00 | 6.10 | 96 | 1013.2 |